Regional Weather Roundup
Issued by NWS

Home | Current Version | Previous Version | Text Only | Print | Product List | Glossary On
Versions: 1 2 3 4 5 6 7 8 9 10 11 12 13 14 15 16 17 18 19 20 21 22 23 24 25 26 27 28 29 30 31 32 33 34 35 36 37 38 39 40 41 42 43 44 45 46 47 48 49 50
000
ASUS43 KFSD 180510
RWRSD

WEATHER ROUNDUP FOR SOUTH DAKOTA
NATIONAL WEATHER SERVICE SIOUX FALLS SD
1200 AM CDT WED OCT 18 2017

NOTE: "FAIR" INDICATES FEW OR NO CLOUDS BELOW 12,000 FEET WITH NO
SIGNIFICANT WEATHER AND/OR OBSTRUCTIONS TO VISIBILITY.


SDZ001>005-009-010-012>017-180600-
NORTHWEST AND NORTH CENTRAL SOUTH DAKOTA

CITY           SKY/WX    TMP DP  RH WIND       PRES   REMARKS
BUFFALO          N/A     56  27  32 S9        29.65F
FAITH            N/A     53  28  38 S12       29.73F
MOBRIDGE       CLOUDY    53  42  66 SE10      29.68F
$$

SDZ012>016-024>037-041>051-057-063-072>074-180600-
SOUTHWEST AND SOUTH CENTRAL SOUTH DAKOTA

CITY           SKY/WX    TMP DP  RH WIND       PRES   REMARKS
RAPID CTY ARPT CLEAR     47  26  44 W3        29.80F
PIERRE         CLOUDY    47  37  68 CALM      29.73F
CUSTER         CLOUDY    55  14  19 W8        29.95F
ELLSWORTH AFB  CLOUDY    54  23  30 CALM      29.78F
PHILIP         CLOUDY    49  33  54 W7        29.76F
PINE RIDGE     CLOUDY    46  26  45 W7        29.87F
SPEARFISH      FAIR      70  18  13 SW22G29   29.80F
WINNER         FAIR      62  30  29 S16       29.80F
$$

SDZ004>011-016>023-039-040-180600-
NORTHEAST SOUTH DAKOTA

CITY           SKY/WX    TMP DP  RH WIND       PRES   REMARKS
ABERDEEN       CLEAR     53  42  66 S13       29.73F
WATERTOWN      CLEAR     51  41  68 S8        29.80F
BROOKINGS      CLEAR     54  43  66 S10       29.86F
SISSETON         N/A     65  39  38 SW23G30   29.73F
$$

SDZ017-020-022-023-036>040-048>070-180600-
SOUTHEAST SOUTH DAKOTA

CITY           SKY/WX    TMP DP  RH WIND       PRES   REMARKS
SIOUX FALLS    CLEAR     57  46  66 S13       29.88F
HURON          CLEAR     56  41  57 S13       29.77F
CHAMBERLAIN    CLEAR     57  38  50 SW7       29.79F
MITCHELL       CLEAR     57  40  52 S15       29.82F
YANKTON        CLEAR     60  45  57 S8        29.89F
$$

ABBREVIATIONS USED IN REMARKS
   TC - TEMPERATURE IN CELSIUS
  WCI - WIND CHILL INDEX
   HX - HEAT INDEX
  VSB - VISIBILITY




USA.gov is the U.S. government's official web portal to all federal, state and local government web resources and services.